Stanley, ID

8:21 PM MDT on May 27, 2017 (GMT -0600)
Stanley

Weather History for KSNT - April, 2014

Change the Weather History Date:

Wednesday, April 9, 2014

  Actual Average Record
Temperature  
Mean Temperature 40 °F 32 °F  
Max Temperature 53 °F 45 °F 67 °F (1996)
Min Temperature 26 °F 18 °F -4 °F (2010)
Degree Days  
Heating Degree Days 25 33  
Month to date heating degree days 303 308  
Since 1 July heating degree days 8618 9026  
Cooling Degree Days 0 0  
Month to date cooling degree days 0 0  
Year to date cooling degree days 0 0  
Moisture  
Dew Point 23 °F    
Average Humidity 55    
Maximum Humidity 92    
Minimum Humidity 17    
Precipitation  
Precipitation 0.00 in 0.05 in 0.70 in (1992)
Month to date precipitation 1.08 0.57  
Year to date precipitation 10.61 5.69  
Sea Level Pressure  
Sea Level Pressure 29.95 in    
Wind  
Wind Speed 5 mph (WNW)    
Max Wind Speed 16 mph    
Max Gust Speed 27 mph    
T = Trace of Precipitation, MM = Missing Value Source: NWS Daily Summary

Daily Weather History Graph

Daily Weather History Graph

Search for Another Location

Airport or City:

Trip Planner

Search our weather history database for the weather conditions in past years. The results will help you decide how hot, cold, wet, or windy it might be!

Date:

Astronomy

Apr. 09, 2014 Rise Set
Actual Time 7:06 AM MDT 8:16 PM MDT
Civil Twilight 6:36 AM MDT 8:46 PM MDT
Nautical Twilight 6:01 AM MDT 9:22 PM MDT
Astronomical Twilight 5:23 AM MDT 10:00 PM MDT
Moon 2:58 PM MDT (4/9) 4:09 AM MDT (4/9)
Length of Visible Light 14h 09m
Length of Day
13h 10m
Waxing Gibbous, 72% of the Moon is Illuminated
Apr 9
Waxing Gibbous
Apr 15
Full
Apr 22
Last Quarter
Apr 29
New
May 6
First Quarter

Hourly Weather History & Observations

Time (MDT) Temp. Windchill Dew Point Humidity Pressure Visibility Wind Dir Wind Speed Gust Speed Precip Events Conditions
12:51 AM 37.9 °F 33.5 °F 27.0 °F 65% 30.01 in - SSE 5.8 mph - N/A   Unknown
1:51 AM 37.9 °F 34.4 °F 27.0 °F 65% 29.97 in - East 4.6 mph - N/A   Unknown
2:51 AM 36.0 °F 33.3 °F 27.0 °F 70% 29.95 in - Variable 3.5 mph - N/A   Unknown
3:51 AM 34.0 °F - 27.0 °F 75% 29.94 in - Calm Calm - N/A   Unknown
4:51 AM 28.9 °F 22.8 °F 25.0 °F 85% 29.94 in - South 5.8 mph - N/A   Unknown
5:51 AM 28.0 °F - 25.0 °F 88% 29.94 in - Calm Calm - N/A   Unknown
6:51 AM 27.0 °F 23.0 °F 24.1 °F 89% 29.96 in - South 3.5 mph - N/A   Unknown
7:51 AM 28.0 °F - 24.1 °F 85% 30.00 in - Calm Calm - N/A   Unknown
8:51 AM 28.9 °F 21.1 °F 25.0 °F 85% 30.01 in - NW 8.1 mph - N/A   Unknown
9:51 AM 41.0 °F 36.4 °F 25.0 °F 53% 29.95 in - Variable 6.9 mph - N/A   Unknown
10:51 AM 51.1 °F - 17.1 °F 26% 29.92 in - WNW 10.4 mph 26.5 mph N/A   Unknown
11:51 AM 50.0 °F - 18.0 °F 28% 29.94 in - NNW 11.5 mph 19.6 mph N/A   Unknown
12:51 PM 50.0 °F - 16.0 °F 26% 29.94 in - North 9.2 mph 17.3 mph N/A   Unknown
1:51 PM 52.0 °F - 14.0 °F 22% 29.92 in - Calm Calm - N/A   Unknown
2:51 PM 51.1 °F - 9.0 °F 18% 29.91 in - Variable 3.5 mph 20.7 mph N/A   Unknown
3:51 PM 51.1 °F - 15.1 °F 24% 29.91 in - SW 6.9 mph - N/A   Unknown
4:51 PM 52.0 °F - 16.0 °F 24% 29.92 in - Variable 5.8 mph - N/A   Unknown
5:51 PM 48.9 °F - 19.9 °F 32% 29.95 in - West 10.4 mph 17.3 mph N/A   Unknown
6:51 PM 46.0 °F 43.1 °F 24.1 °F 42% 29.96 in - NW 5.8 mph - N/A   Unknown
7:51 PM 46.0 °F 44.8 °F 25.0 °F 44% 29.96 in - NNW 3.5 mph - N/A   Unknown
8:51 PM 43.0 °F 41.3 °F 27.0 °F 53% 29.97 in - Variable 3.5 mph - N/A   Unknown
9:51 PM 39.9 °F 37.8 °F 28.0 °F 63% 29.95 in - WNW 3.5 mph - N/A   Unknown
10:51 PM 39.0 °F 36.8 °F 28.9 °F 67% 29.93 in - North 3.5 mph - N/A   Unknown
11:51 PM 37.0 °F 34.5 °F 28.0 °F 70% 29.94 in - SW 3.5 mph - N/A   Unknown